ECMWFFLT2_sfc_temp_132.txt.gz
Temp
73 73 73 73 73 73 75 76 75 76 76 76 76 76 75 75 75 74 74 74 73 69 67 68 70 69 74 71 73 74 74 74 74 75 75 75 75 75 75 75 74 74 74 74 74 73 73 73 74 74 74 74 73 69 69 69 70 70 70 70 71 72
73 73 73 73 73 73 74 75 73 74 74 75 75 75 73 71 74 69 74 71 68 70 67 66 67 73 69 71 71 74 74 74 74 74 74 74 74 74 74 74 74 74 74 74 74 67 67 71 74 75 75 73 70 68 69 69 69 69 70 70 71 72
73 73 73 73 73 72 73 72 73 73 73 74 74 73 70 72 67 68 68 68 69 69 67 67 68 71 70 72 71 74 74 74 74 74 74 74 74 74 74 74 74 74 73 73 68 66 66 66 65 75 73 70 68 68 69 68 68 68 68 70 70 73
72 73 73 73 72 71 71 71 71 71 71 71 71 70 68 68 67 67 68 68 67 69 69 68 73 75 75 71 70 74 74 74 74 74 74 72 73 73 74 74 73 74 72 69 66 66 67 66 66 66 67 68 68 68 67 67 67 67 69 70 70 73
72 72 73 73 72 71 71 71 71 71 69 69 68 68 67 67 67 67 67 68 68 69 69 68 69 70 69 68 66 66 67 67 67 66 72 66 66 67 68 66 66 69 68 68 68 66 67 67 68 68 67 68 68 67 67 67 67 66 66 67 70 72
72 71 72 72 72 72 72 71 70 69 69 69 68 67 67 67 67 67 67 68 69 69 69 68 69 68 68 67 67 67 67 66 66 67 69 67 66 66 66 67 68 68 67 68 67 67 67 68 68 68 68 67 67 67 66 66 66 65 65 66 70 72
71 71 71 72 72 72 71 71 70 69 69 68 67 67 67 67 68 67 68 69 69 68 68 68 68 68 68 68 67 67 67 67 67 67 69 68 67 68 67 67 67 67 67 67 68 68 68 68 68 68 68 68 67 67 66 65 65 64 64 65 70 72
72 71 71 71 71 71 70 70 70 71 70 70 68 67 67 68 69 68 69 69 71 69 68 68 69 68 68 68 68 68 68 68 68 68 70 68 67 67 66 66 67 67 68 67 68 68 67 68 67 69 69 67 68 67 66 65 65 64 63 64 67 71
72 72 71 71 71 71 70 70 70 70 69 71 69 68 69 69 69 69 70 70 71 68 68 69 68 68 67 67 68 68 67 68 69 69 68 68 68 68 67 67 67 67 67 68 68 67 69 68 67 68 69 69 68 66 66 65 64 64 62 62 64 69
72 72 72 72 71 71 70 70 70 70 70 71 69 69 69 69 69 68 69 70 71 70 69 68 68 67 68 67 67 67 68 68 69 68 68 68 68 68 68 67 67 68 68 67 68 69 68 69 69 68 68 69 68 67 66 65 64 63 62 62 63 67
73 73 73 72 71 71 71 71 71 71 71 71 71 70 70 70 69 69 70 70 70 70 69 68 68 67 66 66 66 66 66 67 68 68 68 69 69 69 68 68 69 67 68 67 68 69 69 69 68 69 69 69 68 67 65 64 64 63 62 61 62 62
73 73 73 72 72 72 71 72 72 71 71 72 71 70 70 69 69 68 69 69 69 69 69 67 67 67 66 66 66 66 66 66 67 68 69 69 69 70 69 69 70 68 68 68 68 68 69 69 67 67 68 67 67 66 65 64 63 62 62 61 61 61
73 73 73 72 72 72 72 73 72 71 72 72 71 70 70 69 68 68 68 68 69 69 69 67 67 68 69 66 66 65 65 66 67 67 68 70 70 69 69 69 68 70 68 69 69 68 69 67 66 66 67 67 67 66 65 64 63 62 61 61 59 60
73 73 73 73 73 72 72 72 73 72 72 71 71 70 70 69 69 68 68 68 69 69 68 67 67 67 67 66 66 66 66 66 66 67 68 69 69 67 68 67 67 69 70 68 67 66 66 65 64 64 64 64 63 63 63 63 61 60 60 59 59 58
73 72 73 72 72 72 72 73 73 72 71 71 71 70 69 69 68 68 68 68 69 69 69 68 68 67 66 66 66 65 66 66 66 66 68 68 68 68 67 67 67 67 66 66 66 66 65 64 63 63 62 63 62 62 61 61 61 60 59 58 58 57
72 72 72 72 72 72 73 72 73 73 71 71 70 69 69 69 68 68 68 68 69 69 68 68 68 67 66 65 66 65 66 67 67 66 67 67 68 67 66 66 67 67 65 64 65 62 63 62 62 61 61 61 61 61 60 59 59 59 59 58 58 57
71 72 71 72 72 72 72 72 72 71 71 70 69 69 69 68 68 68 68 68 68 69 68 68 68 68 66 66 66 66 66 67 67 66 66 66 67 67 67 66 65 66 66 63 63 62 60 61 60 60 60 59 59 60 59 59 58 58 58 57 56 56
71 72 71 72 72 72 72 72 71 70 70 69 69 69 68 69 68 68 68 67 68 68 68 67 68 68 66 67 66 66 66 66 67 66 65 66 64 65 66 66 64 64 64 63 61 61 60 60 60 59 58 58 57 57 57 58 59 59 55 55 54 54
71 71 71 71 71 71 71 71 69 68 68 67 68 68 68 68 68 68 68 68 68 68 68 67 68 68 67 67 67 67 67 67 67 65 66 65 64 65 64 65 65 62 62 62 61 61 60 59 58 58 57 56 57 56 57 57 57 55 54 55 56 57
70 70 70 71 71 70 69 68 66 66 65 66 66 67 67 68 68 68 68 68 68 67 67 67 66 67 68 68 67 67 67 67 66 66 65 64 62 64 63 62 63 62 61 61 61 60 60 59 57 57 57 56 55 56 55 55 55 55 55 54 54 54
70 70 70 70 69 69 68 65 65 66 65 65 66 66 67 67 67 67 68 68 68 67 67 67 67 67 67 70 67 66 66 65 66 66 65 64 63 62 63 62 62 63 61 59 58 58 58 60 59 54 55 54 55 54 56 54 53 53 53 53 52 53
69 69 70 70 70 69 68 67 66 65 64 64 65 65 65 66 67 68 67 67 67 66 67 67 68 66 68 67 66 65 65 64 64 64 64 63 63 65 63 62 62 59 61 61 57 59 60 59 54 52 52 51 52 53 55 53 53 54 53 53 53 52
69 69 69 70 70 68 66 67 67 64 65 64 65 66 67 67 67 67 67 67 67 66 67 66 66 66 67 67 66 65 64 64 64 65 63 62 62 62 62 62 61 61 58 58 58 59 58 54 53 52 52 51 49 49 54 52 54 55 54 53 52 54
69 69 69 69 70 68 68 67 67 66 66 66 64 66 66 66 66 66 66 66 66 66 67 66 66 67 67 66 65 65 64 63 64 63 62 61 60 61 61 62 61 61 61 58 56 57 58 56 55 57 52 49 47 46 48 50 49 54 53 54 53 54
70 69 69 69 68 67 67 65 65 65 66 65 66 65 64 65 66 66 66 65 66 66 66 66 66 67 67 65 64 64 63 63 62 62 62 61 60 60 59 61 62 60 60 59 56 54 57 57 58 57 54 52 49 49 46 46 49 52 53 55 55 55
69 69 69 69 68 68 66 66 64 64 63 63 63 63 63 64 64 65 65 66 66 66 66 65 65 65 66 65 63 63 62 63 62 61 62 61 59 58 58 59 61 61 58 59 60 57 55 58 59 58 56 54 53 48 49 49 49 48 53 51 52 54
69 69 69 68 68 68 66 66 66 66 65 64 64 64 65 65 66 65 66 65 65 64 65 65 64 64 64 64 63 62 62 61 61 60 61 59 58 58 58 58 58 59 60 60 59 56 56 56 57 57 57 55 56 53 55 53 49 45 49 48 51 51
69 69 69 68 68 68 67 66 66 66 65 65 65 64 64 64 65 65 64 64 63 63 64 64 64 64 64 64 62 61 61 60 60 60 61 59 58 57 58 58 58 58 59 60 59 58 55 54 57 57 56 55 54 54 52 48 51 50 46 47 49 53
69 69 68 68 68 68 68 67 66 66 65 65 65 64 64 65 64 64 63 62 62 62 62 63 64 64 63 63 63 61 60 60 61 61 61 58 57 57 57 57 57 56 57 55 57 57 57 54 54 55 52 52 52 51 51 51 51 49 46 45 46 47
68 68 68 68 68 67 67 67 66 65 65 64 64 64 64 64 63 62 62 61 61 61 61 60 62 63 63 62 61 61 61 61 59 60 61 59 59 57 55 55 55 55 55 54 53 55 55 51 52 50 51 53 51 50 50 51 49 47 48 46 48 48
68 68 68 68 68 67 67 67 66 66 65 64 64 64 63 63 62 62 61 60 60 60 60 60 59 61 62 61 60 61 60 60 60 61 59 57 57 57 55 55 55 55 55 54 53 53 53 51 51 50 49 50 50 51 49 47 49 47 46 44 45 48
67 67 67 68 67 67 67 67 67 66 66 65 65 65 64 63 63 62 61 60 59 59 58 59 59 58 59 59 60 60 61 61 58 57 57 55 55 56 56 55 54 54 54 53 54 54 52 51 50 50 49 49 49 50 50 50 48 47 49 47 47 46
66 67 67 67 67 67 66 66 67 66 66 66 66 66 65 64 64 63 61 59 58 58 57 58 57 58 58 59 59 59 59 58 57 58 57 56 55 55 55 55 55 54 53 53 52 53 52 51 51 51 50 48 49 50 49 47 49 48 46 46 47 42
66 67 67 67 67 66 66 67 67 66 66 66 65 66 65 64 64 63 62 60 60 59 58 58 58 58 58 59 60 60 60 59 58 58 57 55 54 55 55 55 55 54 53 52 52 52 52 51 50 50 50 50 49 49 47 49 48 48 46 46 45 46
66 66 66 66 66 66 66 67 67 66 66 66 66 65 65 64 63 62 61 61 59 59 59 58 58 58 58 59 59 59 58 57 57 57 56 56 57 56 55 55 54 53 53 52 52 52 51 52 51 50 49 49 50 48 47 47 47 48 48 47 45 44
67 66 66 66 66 66 66 67 66 65 65 65 65 65 64 63 63 63 62 61 59 59 59 58 58 58 58 59 58 59 59 58 57 56 57 57 57 56 54 53 52 53 53 54 52 52 51 51 50 49 49 48 50 48 49 48 49 47 47 48 47 45
67 66 67 67 67 67 67 66 66 65 65 65 64 64 63 63 63 62 62 61 60 59 59 58 58 58 58 58 58 58 58 57 57 57 57 57 56 54 53 54 53 52 52 52 53 51 50 50 49 48 48 49 48 48 47 48 48 49 48 47 47 45

ECMWFFLT2_sfc_temp_135.txt.gz
Temp
73 72 72 72 73 72 74 76 75 75 75 76 75 76 75 75 75 74 74 73 73 68 66 67 70 68 74 71 73 74 74 74 74 75 74 74 74 74 74 74 74 73 74 73 73 72 72 73 74 73 73 72 72 68 69 69 70 71 70 70 70 71
72 72 72 73 73 72 74 75 73 73 74 75 75 76 74 71 75 67 74 71 65 68 65 64 65 73 68 71 71 74 74 74 74 74 74 74 74 74 74 73 73 74 73 73 73 66 66 70 74 73 72 71 67 67 69 70 70 70 70 69 70 72
72 73 73 73 72 72 72 72 72 72 73 74 74 74 70 71 66 65 66 65 67 65 64 65 66 70 68 72 70 74 74 74 74 74 74 74 74 73 73 73 73 73 73 73 65 62 63 62 65 73 71 68 66 67 68 68 68 69 68 69 69 73
72 72 72 72 72 71 71 71 70 71 72 71 72 72 68 66 65 64 66 65 65 65 65 63 71 74 73 69 69 73 74 74 74 74 74 72 72 72 73 72 72 73 70 66 64 63 63 63 65 65 66 66 66 66 67 68 68 67 67 69 70 73
73 72 72 72 72 71 71 72 71 70 70 69 70 69 67 64 65 65 65 67 65 66 66 65 65 66 67 66 64 64 66 66 67 65 72 65 66 67 67 65 65 66 64 65 65 63 64 65 66 66 66 66 66 66 67 66 65 65 66 67 69 72
72 72 72 72 72 72 72 71 71 71 69 70 69 68 66 65 65 65 65 66 67 65 66 66 65 65 65 65 64 64 64 65 66 67 68 67 67 66 65 64 64 65 65 64 64 64 65 67 66 66 66 65 65 65 65 65 65 65 65 65 69 72
71 72 72 73 72 72 71 72 72 71 70 69 68 67 65 65 65 65 65 67 67 65 66 65 65 65 65 65 65 64 64 66 67 67 68 67 67 67 65 64 64 65 63 64 65 64 64 66 67 66 66 66 65 65 64 64 63 63 63 65 69 72
72 72 72 72 72 72 71 71 71 72 70 69 68 67 65 65 66 65 66 66 68 66 66 66 66 66 66 65 65 66 66 66 66 66 67 67 66 65 65 65 64 64 65 65 65 65 65 66 66 67 66 65 65 64 63 63 63 62 62 63 65 70
71 71 71 72 71 72 71 71 71 71 70 71 68 67 65 66 66 66 66 67 69 66 67 67 67 67 66 66 66 66 66 66 66 67 67 66 66 66 65 64 64 65 63 64 66 66 66 66 66 66 66 65 64 64 63 62 62 61 61 61 63 68
70 71 71 71 71 71 71 70 70 70 69 70 67 67 65 65 66 66 66 67 68 68 68 67 67 67 67 66 66 66 67 66 66 66 66 67 66 66 66 65 65 65 65 65 66 67 66 66 67 66 66 65 64 64 63 62 61 60 60 61 62 66
70 71 71 70 70 70 70 70 70 70 69 68 68 67 66 66 66 66 67 68 68 69 68 68 68 67 66 66 65 65 66 66 66 66 67 67 66 67 66 66 66 65 65 65 66 67 67 67 66 67 66 66 64 63 62 62 61 61 61 60 60 61
70 70 71 71 70 70 70 70 70 69 68 68 68 66 66 66 67 66 68 68 68 68 69 68 68 67 67 65 65 65 65 65 66 66 67 67 66 67 66 67 67 66 66 66 65 66 66 66 65 66 66 64 64 63 62 61 61 60 60 59 59 59
71 70 70 70 69 69 69 70 70 69 68 69 68 67 66 66 67 67 68 68 68 68 69 68 67 67 68 65 65 65 64 65 65 65 66 67 68 66 67 66 67 67 65 65 65 65 66 65 64 64 65 64 63 62 61 61 60 59 59 58 57 57
71 70 70 70 70 69 69 69 70 69 69 68 67 67 67 67 68 67 67 68 68 69 68 67 67 66 66 65 64 65 65 65 64 65 66 67 66 65 65 66 65 66 67 65 64 63 64 63 62 63 62 62 61 61 60 60 58 58 57 57 56 55
71 70 70 70 70 69 69 69 69 69 69 68 68 67 67 67 67 67 67 67 68 68 68 67 67 66 65 65 64 64 64 65 65 65 66 66 65 65 65 65 65 64 63 63 63 64 63 62 62 61 61 61 60 59 59 58 58 57 56 54 55 53
70 70 70 70 70 70 70 70 70 71 69 68 68 67 67 67 67 67 67 67 68 68 67 67 67 66 65 65 65 64 65 65 66 65 65 66 66 65 65 65 65 65 63 62 63 60 61 60 60 59 59 59 58 59 57 56 57 56 55 56 55 53
69 70 70 70 70 70 70 69 69 70 69 68 67 67 67 67 67 67 67 67 67 68 67 67 66 66 66 65 64 65 65 65 66 65 65 65 65 65 65 65 64 64 65 61 61 60 59 59 58 58 58 57 57 58 57 57 55 55 55 54 52 52
70 70 70 70 69 69 70 70 69 69 70 68 68 68 67 67 67 67 67 67 67 68 67 67 67 66 65 66 65 65 65 65 65 65 65 65 63 64 65 65 62 61 62 62 60 59 58 58 58 57 56 56 55 55 55 55 56 57 53 53 51 52
70 70 70 70 69 69 69 69 68 68 67 67 68 66 67 67 67 67 67 67 67 67 67 67 67 66 65 65 65 65 65 65 65 64 65 64 63 64 64 64 63 60 60 60 61 60 59 58 56 56 55 54 54 53 54 55 54 53 52 52 53 55
70 70 70 69 69 68 68 67 66 65 65 66 66 66 66 67 67 66 67 67 67 66 67 67 67 66 66 66 65 64 65 65 64 65 64 64 62 62 63 62 61 61 59 60 59 59 59 58 56 55 56 54 53 52 53 53 52 52 53 52 54 52
69 70 69 68 68 68 67 65 65 65 65 64 65 66 66 66 66 67 67 67 67 66 66 67 67 66 65 67 66 64 64 64 64 65 64 63 62 61 62 62 61 61 60 58 57 57 57 60 58 54 54 53 53 53 54 52 51 51 51 51 51 52
69 69 69 69 69 68 68 67 66 65 63 64 65 66 66 66 66 66 67 67 67 66 66 66 67 66 67 66 65 64 64 64 63 63 63 62 62 63 62 61 61 58 59 59 57 57 58 58 53 53 52 51 52 52 53 50 51 51 51 51 51 51
69 69 69 70 69 68 67 67 66 64 65 63 64 65 67 67 66 66 66 66 66 66 66 66 66 66 67 66 65 64 64 63 63 64 62 61 61 60 60 60 61 60 57 56 57 57 56 52 52 50 50 51 48 48 52 51 52 52 52 52 51 51
69 69 69 70 70 68 67 66 67 66 65 65 64 64 65 65 65 65 65 65 65 66 66 66 66 66 66 65 64 64 63 62 63 63 63 61 60 59 59 59 59 60 60 57 54 57 57 53 53 57 52 48 46 44 47 48 47 52 49 50 51 51
69 69 69 69 69 67 67 65 65 65 65 64 64 65 65 65 65 66 65 64 65 65 65 65 65 65 66 64 64 63 63 62 62 61 62 61 60 60 60 60 60 59 59 59 54 53 56 54 57 56 54 48 47 49 45 43 47 50 50 54 53 52
69 69 69 69 68 68 67 65 64 64 62 62 62 63 64 64 64 64 64 65 64 65 65 64 64 65 65 64 63 63 63 63 62 61 61 60 60 58 59 59 60 61 58 57 60 56 54 55 57 55 55 52 52 46 47 46 47 47 52 50 47 50
69 69 69 68 68 68 66 66 66 65 65 64 63 64 66 66 66 65 64 64 64 63 64 64 63 63 63 64 63 63 62 62 62 60 61 59 59 59 59 60 60 59 59 59 57 56 56 54 54 55 55 53 53 51 52 52 47 44 48 47 50 48
69 69 69 68 68 69 67 66 66 66 65 64 64 63 64 65 65 64 63 63 63 62 62 63 62 62 63 63 63 62 61 61 61 60 60 59 58 57 58 59 60 58 58 59 58 58 55 53 55 55 54 51 52 51 50 46 49 51 47 48 47 51
69 68 68 68 68 68 68 67 67 66 65 65 64 63 64 65 64 64 62 61 62 61 61 61 62 62 62 63 64 62 61 60 60 60 60 57 57 57 57 58 57 57 57 56 57 57 56 54 54 53 50 48 50 49 48 48 49 47 43 44 45 46
68 68 68 67 68 68 68 67 66 65 65 63 63 63 64 64 63 62 61 61 60 60 60 60 60 61 61 62 62 62 61 61 59 60 60 57 58 57 56 56 57 58 57 57 55 56 57 54 55 52 54 51 49 48 49 51 50 44 46 44 48 48
67 68 67 67 68 67 67 67 66 65 65 64 63 63 63 63 62 61 61 59 59 59 59 59 59 60 60 61 61 62 61 60 60 61 59 57 58 58 56 55 55 56 57 56 53 54 53 52 52 51 50 53 53 54 52 49 49 47 44 43 44 46
66 67 67 67 67 67 67 66 66 66 65 65 64 63 63 63 63 62 61 59 58 58 58 58 58 58 58 59 60 60 61 60 59 57 57 57 57 57 56 54 53 54 54 52 52 54 51 50 49 49 48 49 50 51 47 48 50 50 50 44 49 45
66 66 66 67 67 67 66 66 66 66 66 65 64 64 64 63 63 62 61 59 58 58 57 57 57 58 57 58 59 59 59 58 57 57 57 56 56 56 55 55 54 53 51 52 52 52 51 50 50 51 49 47 47 48 48 46 47 47 45 46 48 42
66 66 66 66 67 66 66 66 66 66 66 65 65 65 64 64 63 63 62 60 60 59 58 59 58 58 58 58 58 59 60 58 58 57 57 57 56 55 55 55 54 52 51 50 50 50 50 48 47 47 48 48 46 47 45 46 46 46 46 48 46 50
65 66 66 66 66 66 66 66 66 66 66 65 65 65 64 64 64 62 61 61 60 59 59 58 58 57 58 58 58 58 57 56 56 56 57 56 56 55 55 55 54 52 51 50 50 50 49 49 49 48 46 47 48 46 45 44 45 45 46 49 48 46
66 66 66 66 66 66 66 66 65 65 65 65 65 65 64 64 64 63 62 60 58 58 59 58 57 57 57 58 57 57 57 55 55 56 56 56 55 54 53 52 51 52 51 52 50 49 48 49 48 47 47 46 48 45 45 45 45 44 43 44 44 43
66 66 66 66 66 66 66 65 65 65 65 65 65 64 64 63 62 62 61 60 59 59 58 58 58 58 57 56 57 57 56 55 55 56 56 55 54 52 51 52 52 52 51 49 50 49 48 48 47 46 46 46 47 45 45 45 45 46 45 43 43 43

ECMWFFLT2_sfc_temp_138.txt.gz
Temp
72 72 72 72 72 72 74 76 75 76 75 76 75 76 75 75 75 75 75 74 74 70 68 69 71 70 75 72 74 75 76 76 75 75 74 74 74 73 74 73 73 73 73 73 72 72 73 73 73 73 72 72 71 70 71 72 72 72 71 72 73 73
72 72 73 73 73 72 73 75 73 73 74 74 75 75 74 72 75 69 75 72 67 70 67 66 67 74 71 72 72 74 74 75 74 74 74 74 73 73 73 73 73 73 73 71 69 66 69 74 73 72 71 70 69 70 71 71 71 71 72 72 73 73
72 72 72 73 73 72 72 72 72 72 73 74 74 74 71 72 67 67 66 66 67 67 65 67 67 70 70 73 71 74 74 74 74 74 74 73 73 73 73 73 73 73 71 68 65 65 66 69 71 72 70 69 69 70 71 70 70 70 71 72 72 73
72 72 72 72 72 72 71 71 71 71 71 71 72 71 70 68 66 66 65 65 65 66 66 64 71 74 73 70 70 74 74 73 74 74 74 71 71 71 71 70 70 71 68 66 65 65 66 67 67 67 68 68 68 69 69 69 69 69 70 72 73 73
73 72 72 72 72 72 72 72 72 71 70 70 70 69 68 66 66 65 65 65 64 66 64 64 65 68 68 66 65 64 68 68 68 67 70 67 67 66 67 66 65 66 65 67 65 64 67 67 67 67 67 68 68 69 68 67 68 68 68 69 72 73
72 72 72 71 71 72 72 71 71 71 70 69 70 69 67 66 65 66 66 66 66 65 64 64 64 64 66 65 65 65 65 66 66 68 69 67 67 66 65 65 65 64 64 64 65 66 67 67 67 67 67 67 67 67 66 67 67 67 67 69 71 72
71 71 71 72 72 72 71 72 71 71 70 70 70 68 67 66 65 65 66 67 66 65 64 63 64 64 65 65 65 65 65 66 67 67 68 67 65 65 65 65 65 64 64 66 66 66 67 67 67 67 67 67 66 66 66 66 66 66 66 67 71 71
71 71 71 72 72 71 71 72 72 72 71 71 70 69 67 66 66 65 66 66 68 65 66 65 65 65 66 65 65 65 65 67 67 66 67 67 66 65 66 66 65 65 66 66 66 66 67 67 67 67 66 66 66 65 65 65 65 64 65 65 68 71
71 71 71 72 71 71 72 71 71 71 70 72 70 70 68 66 65 65 65 66 68 65 66 66 66 65 65 65 65 65 66 66 67 66 66 67 67 66 66 65 65 65 64 65 66 67 67 67 66 67 66 66 65 65 64 64 64 64 64 64 66 70
71 71 72 71 71 71 71 71 71 71 71 72 70 70 68 66 65 64 64 65 67 66 66 66 66 66 66 66 65 66 66 66 66 67 67 67 67 66 65 65 65 66 66 66 67 68 67 67 67 67 66 65 65 64 64 64 63 63 63 63 65 68
71 72 72 71 71 71 71 71 71 71 71 71 70 69 68 66 65 64 65 65 66 68 67 67 67 66 66 66 66 66 66 66 66 67 67 67 67 67 66 66 66 66 66 66 67 68 67 67 66 67 66 66 64 64 63 63 63 63 63 62 63 65
71 72 71 71 71 71 71 71 71 71 70 71 70 68 67 65 65 65 65 65 66 67 69 67 67 67 67 66 66 65 65 66 66 66 67 67 67 67 67 67 67 67 66 67 67 67 67 67 66 66 66 64 64 63 63 63 63 62 62 62 61 61
71 71 70 70 70 70 71 71 70 70 70 70 69 68 66 65 65 65 66 66 66 67 69 67 67 67 68 66 66 65 65 66 66 66 67 68 68 68 68 67 66 66 66 66 66 66 67 66 65 64 65 64 64 63 63 62 62 61 61 61 60 60
70 70 70 70 70 70 70 70 71 70 70 70 69 67 66 65 66 66 66 67 67 68 68 67 67 67 67 66 65 65 65 65 65 66 66 68 67 67 66 66 66 67 67 65 65 65 65 64 64 65 64 63 62 62 62 62 61 60 60 60 59 59
70 70 70 70 70 70 70 70 70 70 70 69 68 66 65 65 66 66 67 67 67 68 68 67 67 67 66 66 65 65 65 66 65 66 67 67 66 66 66 66 66 65 64 64 64 65 64 63 63 63 62 62 61 61 61 60 60 60 60 58 58 57
70 69 70 70 70 70 70 70 70 70 69 68 67 66 65 65 66 66 67 66 67 68 68 67 67 67 66 66 65 65 66 65 66 66 66 66 66 66 65 65 65 65 63 62 63 62 62 61 61 61 61 61 60 60 59 59 59 59 58 58 58 57
69 69 70 70 70 69 69 68 68 69 68 67 66 66 65 66 66 66 66 66 67 68 67 67 67 67 66 66 65 65 66 66 67 66 66 65 65 65 65 64 63 65 64 62 62 61 60 60 59 59 60 59 59 59 58 58 57 57 57 57 56 57
69 70 70 70 69 69 68 68 68 68 68 67 67 66 66 66 66 66 66 66 67 68 67 67 67 66 66 66 66 66 65 66 66 66 65 65 64 65 65 64 62 62 63 62 61 60 59 59 59 58 58 57 57 57 57 57 59 59 56 56 56 56
69 69 69 69 69 69 68 68 67 67 67 66 66 66 66 66 66 66 66 67 67 67 67 67 67 66 66 67 65 65 65 65 66 65 65 64 64 64 64 64 62 60 61 61 61 61 60 58 57 57 56 55 56 56 57 59 58 56 56 55 57 58
69 69 69 69 69 68 67 66 65 65 65 65 65 65 66 66 66 66 67 67 67 67 67 67 67 66 66 66 65 65 65 65 65 65 64 63 63 63 62 62 61 61 59 60 60 60 60 59 57 56 57 55 55 55 56 56 55 56 57 56 58 57
68 69 69 68 68 67 66 65 65 65 65 65 65 65 66 66 66 66 67 67 67 66 67 67 67 66 66 67 65 65 65 65 65 66 65 64 64 63 63 62 61 61 60 58 58 59 59 60 58 55 55 55 55 56 57 55 55 55 56 55 56 57
68 69 69 68 68 68 67 67 65 65 64 64 65 65 65 66 66 66 67 67 67 66 66 67 67 66 66 66 65 65 65 64 65 65 64 64 64 64 62 61 61 60 61 60 57 59 59 60 56 55 54 54 55 56 57 54 55 56 55 55 55 55
68 68 68 68 68 67 67 67 66 64 65 63 64 66 66 66 66 66 66 66 66 66 66 66 67 67 66 66 65 65 65 64 64 65 63 62 62 61 61 61 62 61 58 58 59 59 58 56 55 55 55 53 51 51 56 55 56 55 55 55 54 55
68 68 68 68 68 68 68 66 66 65 66 66 64 65 66 66 66 66 65 66 66 66 66 66 67 67 67 66 65 65 64 64 64 64 63 62 61 60 60 60 61 61 61 58 58 59 59 56 56 58 56 53 50 49 50 52 51 55 53 53 55 55
68 68 68 68 68 67 67 65 65 65 65 64 65 65 65 65 66 66 66 65 65 66 66 66 66 67 67 65 65 64 64 64 63 63 63 62 61 61 61 62 61 61 61 60 57 56 58 56 58 61 56 50 51 52 50 48 51 54 53 58 57 56
68 68 68 68 68 67 66 65 63 63 62 63 63 64 64 64 64 65 65 66 65 65 65 66 65 66 66 65 64 64 64 63 63 63 63 62 61 60 60 61 61 62 60 61 61 57 57 58 58 58 56 55 55 52 51 50 51 52 56 54 53 53
68 68 68 68 68 68 66 66 65 65 65 64 64 64 66 66 66 66 66 65 65 64 65 65 64 65 65 65 64 64 64 63 63 63 63 61 60 60 61 62 62 61 62 61 60 58 58 57 57 57 57 55 56 53 55 53 52 48 53 52 53 52
68 68 68 68 67 68 67 66 65 65 65 64 65 64 65 66 67 66 65 64 63 63 64 64 64 64 64 64 64 63 63 62 62 62 63 62 61 61 61 61 62 62 61 61 60 60 58 57 57 56 56 56 55 54 54 49 53 54 50 52 53 55
68 68 68 68 67 68 68 67 66 66 64 65 64 64 66 66 66 65 64 63 63 62 62 63 64 63 63 64 64 63 63 61 61 62 63 61 61 61 61 61 60 59 59 59 59 60 59 57 57 56 54 52 53 53 53 52 52 51 50 50 50 51
67 68 68 67 68 67 67 67 66 66 65 63 63 63 65 65 65 64 63 62 62 61 61 61 61 62 63 63 63 63 62 62 61 61 62 61 60 60 60 61 61 60 59 59 59 59 59 58 58 56 58 55 53 52 54 55 53 50 50 51 53 53
67 68 68 67 67 67 67 67 67 66 65 63 63 63 63 64 64 63 62 61 61 60 60 61 61 61 62 62 62 63 63 62 62 62 60 59 59 59 58 59 60 60 59 59 58 58 58 58 57 56 55 56 57 56 56 54 53 51 51 49 50 52
66 67 67 67 67 67 67 67 67 66 65 64 64 64 64 63 64 63 62 61 60 59 59 59 60 60 60 61 61 61 63 62 61 60 59 60 60 60 59 58 58 58 59 58 58 58 57 56 55 55 54 55 56 56 55 56 55 55 55 52 54 51
66 66 66 67 66 67 67 67 67 66 66 65 64 64 64 64 64 64 63 61 59 59 58 58 58 59 58 60 61 60 60 60 59 59 59 58 57 58 58 57 57 57 57 57 57 57 56 55 55 55 55 53 54 54 55 52 53 54 52 50 52 49
66 66 66 66 66 66 66 67 67 67 66 65 64 65 65 65 64 64 63 61 61 60 59 60 58 59 59 59 60 61 61 60 60 59 59 59 58 58 57 57 57 56 55 55 55 55 55 54 53 53 52 52 52 53 51 49 52 52 51 52 50 52
66 66 66 66 66 66 66 66 66 67 66 66 65 65 65 65 64 64 62 62 61 61 61 60 59 59 59 59 60 60 60 59 58 58 58 58 57 56 56 56 56 55 53 52 53 53 52 52 52 51 51 52 51 50 49 48 49 52 52 55 53 51
66 66 66 66 66 66 66 66 66 66 66 65 65 65 64 64 64 64 63 62 60 60 59 58 59 59 59 59 59 59 59 57 57 57 57 57 56 56 55 54 54 53 52 53 52 52 51 51 51 50 50 49 51 49 48 48 48 48 50 51 52 52
66 66 66 66 66 66 66 65 65 66 65 65 65 64 64 63 63 63 63 62 60 59 59 59 59 59 58 58 59 59 58 56 56 56 57 57 55 54 54 54 53 52 51 52 52 51 50 51 49 49 49 50 50 49 48 49 49 47 47 47 49 52

ECMWFFLT2_sfc_temp_141.txt.gz
Temp
79 79 79 79 78 79 79 76 76 76 76 76 76 76 75 75 75 75 76 76 75 77 77 77 77 79 76 78 76 76 76 76 76 75 75 74 74 74 74 74 73 73 73 73 74 74 74 74 73 73 73 74 75 79 79 80 81 81 81 81 79 79
78 79 79 78 79 79 79 78 79 79 78 77 77 77 77 78 77 78 76 76 77 77 77 78 77 77 78 78 77 76 76 76 76 75 74 74 74 74 74 73 73 72 71 72 74 79 77 73 72 73 73 74 79 78 78 79 79 80 80 80 80 76
78 79 78 78 78 78 79 79 79 79 79 78 78 79 79 78 79 79 79 78 76 76 77 77 77 77 78 76 77 75 75 75 75 75 74 74 74 73 73 73 72 71 70 71 79 80 81 80 76 73 74 76 77 77 77 78 78 78 80 79 79 73
78 78 78 78 78 78 78 79 79 79 79 78 78 78 79 79 78 78 77 76 76 76 76 76 75 75 75 77 77 75 74 74 74 74 74 75 73 73 70 71 71 71 73 78 80 80 81 78 76 76 76 76 76 77 77 77 79 79 80 80 78 73
78 78 77 77 77 78 79 78 79 79 78 78 78 78 78 77 77 76 76 75 76 75 75 76 77 77 77 77 77 77 77 77 78 78 73 77 77 76 75 76 75 75 78 79 80 78 77 76 76 75 74 74 75 77 78 79 80 81 80 78 77 73
77 77 77 77 77 78 77 77 78 78 77 78 78 77 78 75 75 74 75 75 75 74 74 75 76 76 76 76 76 76 76 76 76 77 77 77 77 76 77 78 78 79 79 80 79 79 78 76 75 75 76 75 76 78 79 79 79 78 78 78 77 73
76 76 77 78 78 78 78 78 78 78 77 77 78 77 76 74 72 73 74 74 73 73 73 74 74 75 74 75 75 75 74 75 76 76 77 77 76 76 78 77 79 78 79 80 80 79 77 76 76 76 76 79 78 78 78 79 78 78 78 77 75 72
76 76 76 77 77 77 77 76 77 76 77 77 77 76 75 73 72 73 73 74 74 74 73 73 74 73 74 74 74 75 75 75 75 75 76 75 76 77 77 77 78 79 80 79 78 77 76 76 76 78 79 76 77 76 77 78 77 77 77 77 76 72
76 76 77 77 76 77 77 76 76 77 76 76 76 76 75 73 71 74 74 75 74 72 73 72 72 73 72 73 74 74 74 74 75 75 75 75 76 76 77 77 78 79 78 77 77 76 77 77 77 78 77 77 77 76 75 76 76 77 77 77 76 73
76 76 76 76 76 76 76 75 76 77 77 77 77 76 74 73 74 74 74 75 75 75 74 73 73 73 71 71 72 74 73 74 74 76 76 76 77 78 78 78 79 79 78 78 78 77 76 77 79 77 78 76 75 75 75 76 77 77 77 76 75 73
76 76 77 76 76 76 76 75 77 77 78 77 77 75 73 75 75 74 75 74 75 75 74 75 73 73 73 72 72 73 74 75 76 77 77 77 78 79 78 78 79 78 78 78 77 77 78 77 77 78 77 77 75 75 75 75 75 76 76 75 75 74
75 75 75 76 76 76 76 76 76 77 77 78 76 75 73 74 74 75 75 74 74 75 75 75 74 74 74 73 72 72 74 75 76 77 78 79 78 79 79 79 79 78 77 77 77 77 78 77 76 77 77 75 75 75 75 75 75 74 75 74 75 74
75 74 74 75 76 76 76 76 75 76 77 77 76 75 73 73 74 75 74 74 74 76 76 75 74 74 74 73 73 72 72 74 77 78 78 78 79 77 78 77 76 77 76 77 76 75 78 76 75 75 75 76 76 76 75 75 74 73 73 74 74 74
75 75 74 75 75 76 76 76 76 76 76 76 76 74 73 73 74 75 75 74 75 75 76 77 76 74 74 73 74 74 74 75 76 77 77 77 77 78 78 77 77 77 75 76 76 75 74 74 75 75 74 74 74 73 74 75 74 73 72 72 73 72
74 75 74 75 75 75 76 76 76 75 76 75 75 74 73 73 74 75 76 75 75 75 76 76 77 75 74 74 74 74 75 76 76 77 78 78 78 78 77 77 77 77 75 76 77 75 75 73 73 73 71 71 71 72 73 72 72 73 73 71 72 72
74 74 74 75 75 75 75 75 76 75 75 74 74 73 73 74 75 76 76 76 76 76 76 77 77 77 75 75 75 75 77 77 77 77 78 77 78 77 76 76 76 76 74 75 77 73 73 72 72 71 70 70 70 71 72 72 71 73 73 72 72 70
73 73 74 75 75 75 74 74 74 74 75 74 73 73 74 74 75 76 77 77 76 76 76 76 77 77 75 75 76 77 78 76 77 78 77 76 77 77 75 74 74 75 76 73 74 73 72 71 70 69 69 68 69 70 71 71 71 71 70 70 70 70
73 73 73 73 74 73 74 74 74 74 74 73 72 74 73 73 75 76 76 77 76 76 76 76 77 77 75 77 78 77 78 76 77 77 76 76 76 76 75 74 72 73 75 74 73 71 70 70 69 68 67 66 67 70 70 70 70 70 71 69 70 70
73 73 72 72 73 73 73 72 73 72 73 73 73 73 73 72 75 76 76 77 77 76 76 77 76 77 75 76 77 77 77 76 77 76 75 75 74 74 73 73 72 71 72 74 73 71 70 69 67 66 66 65 67 68 70 70 70 70 70 69 69 69
73 73 72 72 72 71 72 70 69 70 70 70 72 71 72 73 75 76 77 76 77 76 76 76 77 76 76 76 77 76 76 76 77 76 75 74 74 73 71 71 71 70 69 70 71 70 69 69 67 65 64 65 67 67 67 68 68 69 70 69 69 70
73 73 72 71 71 71 69 68 69 70 69 70 71 72 72 73 74 76 77 77 77 76 75 76 77 76 76 76 76 76 76 75 77 76 75 74 73 72 71 71 70 70 69 68 68 70 69 70 67 64 65 65 65 67 66 66 67 68 69 69 71 70
73 73 73 73 72 72 71 71 70 71 71 71 71 71 71 73 73 75 76 76 76 76 76 76 76 77 76 76 75 75 75 75 75 76 75 73 72 70 70 70 70 69 71 69 67 70 69 70 67 66 63 63 64 66 66 66 67 67 68 69 69 69
73 73 73 74 74 73 73 73 72 72 73 73 74 75 75 74 73 75 75 76 76 76 76 77 77 77 76 76 75 75 75 75 75 75 72 71 71 69 70 70 70 70 68 70 69 69 69 72 70 68 67 64 62 61 63 64 66 67 67 68 68 68
73 72 73 74 74 74 74 74 74 74 74 75 73 74 74 73 73 74 74 75 76 76 76 77 78 78 77 76 75 75 75 75 74 74 73 71 70 69 69 70 71 70 70 66 68 68 70 68 71 67 63 65 64 64 61 61 62 65 68 68 67 67
73 72 73 74 74 74 73 73 73 73 74 73 74 72 72 71 72 73 74 73 74 75 76 77 77 77 78 76 75 75 75 74 74 72 70 66 68 70 71 72 71 70 70 69 67 67 67 68 69 72 70 63 61 60 64 65 63 63 66 66 68 70
73 73 74 74 74 74 72 71 70 70 68 69 69 68 67 68 69 70 72 73 74 75 76 77 77 77 78 76 75 75 74 74 73 70 69 66 66 67 70 72 72 71 70 71 70 67 66 67 69 68 69 69 69 68 66 65 65 60 64 67 68 70
73 74 74 74 74 73 72 71 70 70 71 71 70 70 72 73 72 72 73 71 73 73 75 75 76 77 77 76 75 74 74 74 73 72 70 69 68 69 72 73 73 72 72 71 70 68 67 66 67 67 67 68 68 68 70 65 63 64 59 63 65 65
73 74 74 74 73 73 72 72 71 71 72 73 73 71 72 72 73 73 71 71 72 72 74 76 75 76 77 76 75 74 74 74 73 72 71 71 71 72 72 73 72 73 72 71 70 70 68 68 66 66 67 66 66 66 69 68 70 68 67 62 61 67
73 74 74 74 73 73 73 73 72 72 72 74 75 74 73 73 72 71 70 70 70 71 71 74 76 76 76 76 74 74 74 73 73 72 73 73 72 72 71 71 70 70 70 70 71 72 70 68 68 68 65 65 67 68 68 68 68 69 67 65 64 62
73 74 75 74 74 73 74 74 72 72 72 72 73 74 74 72 71 69 69 68 69 70 71 71 72 75 74 75 74 74 73 73 73 73 73 73 72 71 71 71 71 70 70 69 70 71 71 70 69 69 68 68 67 66 66 66 66 67 66 68 66 65
73 74 75 75 74 73 74 74 73 73 73 72 72 72 71 70 70 68 68 67 67 69 71 72 72 72 73 74 73 74 72 73 72 72 72 72 71 72 70 70 70 69 69 68 68 68 67 65 67 69 69 70 69 68 68 67 66 67 67 65 65 66
73 73 74 74 75 74 74 74 74 74 73 73 72 72 71 70 70 68 68 67 68 69 71 72 72 72 72 73 72 72 72 72 71 71 72 73 72 73 71 70 70 69 69 69 69 67 66 64 65 68 68 70 71 71 71 70 71 70 68 68 67 67
72 73 73 74 75 74 73 73 74 74 73 73 73 74 73 72 71 69 68 67 67 68 69 70 71 72 70 71 72 70 70 71 71 71 72 71 67 68 69 69 70 69 69 69 69 67 66 65 66 68 69 69 71 71 71 72 72 70 70 70 69 67
72 73 74 74 75 74 73 74 74 74 74 73 73 73 74 75 72 71 69 68 68 69 70 71 70 70 70 71 71 71 71 71 72 72 70 67 65 67 68 70 70 69 69 69 69 67 67 67 68 69 70 69 69 70 71 70 70 70 68 67 67 66
72 73 73 73 74 73 73 74 74 75 74 74 74 74 74 76 73 71 70 69 70 71 73 72 71 71 71 70 70 71 71 71 70 67 67 66 66 67 68 70 69 66 65 65 65 67 68 68 66 67 66 68 68 69 69 69 69 69 71 70 69 68
73 73 73 73 74 74 74 74 74 74 74 73 74 74 74 74 74 73 71 71 70 71 72 71 71 71 70 71 70 71 71 71 68 66 67 68 67 67 67 68 68 65 64 62 64 65 67 67 66 66 66 67 67 68 67 67 68 69 70 71 70 69
73 73 73 73 74 74 73 73 73 73 73 73 72 73 73 73 73 73 73 73 72 72 73 71 70 70 69 70 71 71 71 69 67 66 67 67 66 67 67 67 66 64 63 62 65 66 66 66 66 65 66 64 67 67 66 65 65 66 66 66 69 69